• In Russia
  • List of Countries
  • For 7 days
  • Water Temperature
  • Satellite Maps
  • Weather Map
  • Weather Widgets
  • user-avatar
    Login

    Hourly Weather Sharagol

    Today, 20 January, Sunday

    Time Temperature Precipitation Wind Pressure Humidity
    00:00 -21°C° 0 mm 3 mps 600 mmHg 43%
    01:00 -19°C° 0 mm 3 mps 599 mmHg 40%
    02:00 -19°C° 0 mm 3 mps 599 mmHg 38%
    03:00 -19°C° 0 mm 3 mps 599 mmHg 36%
    04:00 -19°C° 0 mm 3 mps 599 mmHg 34%
    05:00 -19°C° 0 mm 3 mps 599 mmHg 33%
    06:00 -18°C° 0 mm 2 mps 599 mmHg 33%
    07:00 -17°C° 0 mm 2 mps 600 mmHg 32%
    08:00 -17°C° 0 mm 2 mps 600 mmHg 34%
    09:00 -16°C° 0 mm 2 mps 600 mmHg 37%
    10:00 -15°C° 0 mm 2 mps 600 mmHg 39%
    11:00 -14°C° 0 mm 2 mps 600 mmHg 45%
    12:00 -13°C° 0 mm 2 mps 600 mmHg 51%
    13:00 -10°C° 0 mm 2 mps 600 mmHg 56%
    14:00 -13°C° 0 mm 2 mps 600 mmHg 53%
    15:00 -14°C° 0 mm 2 mps 599 mmHg 49%
    16:00 -15°C° 0 mm 2 mps 598 mmHg 45%
    17:00 -16°C° 0 mm 2 mps 598 mmHg 42%
    18:00 -16°C° 0 mm 2 mps 598 mmHg 39%
    19:00 -17°C° 0 mm 2 mps 597 mmHg 36%
    20:00 -17°C° 0 mm 2 mps 597 mmHg 33%
    21:00 -17°C° 0 mm 2 mps 597 mmHg 31%
    22:00 -17°C° 0 mm 2 mps 597 mmHg 29%
    23:00 -17°C° 0 mm 2 mps 597 mmHg 27%

    Tomorrow, 21 January, Monday

    Time Temperature Precipitation Wind Pressure Humidity
    00:00 -17°C° 0 mm 2 mps 597 mmHg 26%
    01:00 -18°C° 0 mm 3 mps 597 mmHg 25%
    02:00 -16°C° 0 mm 2 mps 597 mmHg 26%
    03:00 -16°C° 0 mm 2 mps 596 mmHg 26%
    04:00 -16°C° 0 mm 2 mps 596 mmHg 27%
    05:00 -16°C° 0 mm 2 mps 596 mmHg 27%
    06:00 -16°C° 0 mm 2 mps 596 mmHg 27%
    07:00 -16°C° 0 mm 2 mps 596 mmHg 26%
    08:00 -15°C° 0 mm 2 mps 597 mmHg 31%
    09:00 -14°C° 0 mm 2 mps 597 mmHg 35%
    10:00 -14°C° 0 mm 2 mps 598 mmHg 40%
    11:00 -12°C° 0 mm 2 mps 598 mmHg 46%
    12:00 -10°C° 0 mm 2 mps 598 mmHg 51%
    13:00 -9°C° 0 mm 2 mps 598 mmHg 57%
    14:00 -10°C° 0 mm 2 mps 598 mmHg 53%
    15:00 -12°C° 0 mm 2 mps 597 mmHg 50%
    16:00 -13°C° 0 mm 2 mps 597 mmHg 46%
    17:00 -14°C° 0 mm 2 mps 597 mmHg 43%
    18:00 -15°C° 0 mm 2 mps 597 mmHg 40%
    19:00 -16°C° 0 mm 2 mps 596 mmHg 37%
    20:00 -16°C° 0 mm 2 mps 596 mmHg 37%
    21:00 -15°C° 0 mm 2 mps 596 mmHg 37%
    22:00 -15°C° 0 mm 2 mps 596 mmHg 37%
    23:00 -15°C° 0 mm 2 mps 596 mmHg 38%

    Day after tomorrow, 22 January, Tuesday

    Time Temperature Precipitation Wind Pressure Humidity
    00:00 -15°C° 0 mm 2 mps 596 mmHg 38%
    01:00 -15°C° 0 mm 2 mps 596 mmHg 39%
    02:00 -15°C° 0 mm 2 mps 596 mmHg 39%
    03:00 -15°C° 0 mm 2 mps 596 mmHg 39%
    04:00 -15°C° 0 mm 2 mps 596 mmHg 40%
    05:00 -15°C° 0 mm 2 mps 596 mmHg 39%
    06:00 -14°C° 0 mm 2 mps 596 mmHg 39%
    07:00 -14°C° 0 mm 2 mps 596 mmHg 39%
    08:00 -12°C° 0 mm 1 mps 596 mmHg 40%
    09:00 -11°C° 0 mm 1 mps 596 mmHg 41%
    10:00 -10°C° 0 mm 1 mps 597 mmHg 42%
    11:00 -9°C° 0 mm 1 mps 597 mmHg 47%
    12:00 -8°C° 0 mm 1 mps 598 mmHg 52%
    13:00 -7°C° 0 mm 1 mps 598 mmHg 57%
    14:00 -8°C° 0 mm 1 mps 597 mmHg 59%
    15:00 -12°C° 0 mm 2 mps 597 mmHg 61%
    16:00 -14°C° 0 mm 2 mps 597 mmHg 62%
    17:00 -15°C° 0 mm 2 mps 597 mmHg 64%
    18:00 -16°C° 0 mm 2 mps 597 mmHg 66%
    19:00 -17°C° 0 mm 2 mps 597 mmHg 68%
    20:00 -18°C° 0 mm 2 mps 597 mmHg 69%
    21:00 -18°C° 0 mm 2 mps 598 mmHg 70%
    22:00 -18°C° 0 mm 2 mps 598 mmHg 71%
    23:00 -16°C° 0 mm 1 mps 598 mmHg 74%

    23 January, Wednesday

    Time Temperature Precipitation Wind Pressure Humidity
    00:00 -16°C° 0 mm 1 mps 598 mmHg 78%
    01:00 -16°C° 0 mm 1 mps 598 mmHg 81%
    02:00 -16°C° 0 mm 1 mps 599 mmHg 85%
    03:00 -16°C° 0 mm 1 mps 599 mmHg 88%
    04:00 -17°C° 0 mm 1 mps 599 mmHg 92%
    05:00 -17°C° 0.1 mm 1 mps 599 mmHg 93%
    06:00 -17°C° 0.1 mm 1 mps 600 mmHg 94%
    07:00 -17°C° 0.1 mm 1 mps 600 mmHg 95%
    08:00 -16°C° 0 mm 1 mps 600 mmHg 94%
    09:00 -16°C° 0 mm 1 mps 601 mmHg 93%
    10:00 -15°C° 0 mm 0 mps 601 mmHg 92%
    11:00 -14°C° 0 mm 1 mps 602 mmHg 89%
    12:00 -14°C° 0 mm 1 mps 602 mmHg 85%
    13:00 -13°C° 0 mm 1 mps 602 mmHg 82%
    14:00 -14°C° 0 mm 1 mps 601 mmHg 85%
    15:00 -15°C° 0 mm 1 mps 601 mmHg 88%
    16:00 -16°C° 0 mm 1 mps 600 mmHg 90%
    17:00 -17°C° 0 mm 1 mps 600 mmHg 91%
    18:00 -18°C° 0 mm 1 mps 600 mmHg 92%
    19:00 -19°C° 0 mm 1 mps 600 mmHg 92%
    20:00 -19°C° 0 mm 1 mps 601 mmHg 91%
    21:00 -21°C° 0 mm 2 mps 601 mmHg 91%
    22:00 -21°C° 0 mm 2 mps 601 mmHg 90%
    23:00 -21°C° 0 mm 2 mps 601 mmHg 89%

    24 January, Thursday

    Time Temperature Precipitation Wind Pressure Humidity
    00:00 -21°C° 0 mm 2 mps 601 mmHg 89%
    01:00 -21°C° 0 mm 2 mps 601 mmHg 88%
    02:00 -21°C° 0 mm 2 mps 601 mmHg 88%
    03:00 -21°C° 0 mm 2 mps 600 mmHg 88%
    04:00 -21°C° 0 mm 2 mps 600 mmHg 88%
    05:00 -21°C° 0 mm 2 mps 600 mmHg 88%
    06:00 -21°C° 0 mm 2 mps 600 mmHg 87%
    07:00 -23°C° 0 mm 3 mps 600 mmHg 87%
    08:00 -22°C° 0 mm 3 mps 601 mmHg 86%
    09:00 -21°C° 0 mm 3 mps 601 mmHg 85%
    10:00 -19°C° 0 mm 3 mps 601 mmHg 84%
    11:00 -17°C° 0 mm 3 mps 601 mmHg 83%
    12:00 -16°C° 0 mm 3 mps 601 mmHg 82%
    13:00 -16°C° 0 mm 4 mps 601 mmHg 81%
    14:00 -16°C° 0 mm 3 mps 601 mmHg 83%
    15:00 -17°C° 0 mm 3 mps 600 mmHg 86%
    16:00 -18°C° 0 mm 3 mps 599 mmHg 89%
    17:00 -19°C° 0 mm 3 mps 599 mmHg 90%
    18:00 -21°C° 0 mm 3 mps 599 mmHg 92%
    19:00 -23°C° 0 mm 3 mps 599 mmHg 93%
    20:00 -23°C° 0 mm 3 mps 599 mmHg 93%
    21:00 -23°C° 0 mm 3 mps 599 mmHg 93%
    22:00 -23°C° 0 mm 3 mps 599 mmHg 93%
    23:00 -23°C° 0 mm 3 mps 599 mmHg 92%

    25 January, Friday

    Time Temperature Precipitation Wind Pressure Humidity
    00:00 -21°C° 0 mm 2 mps 599 mmHg 90%
    01:00 -21°C° 0 mm 2 mps 598 mmHg 88%
    02:00 -21°C° 0 mm 2 mps 599 mmHg 83%
    03:00 -21°C° 0 mm 2 mps 599 mmHg 78%
    04:00 -23°C° 0 mm 2 mps 599 mmHg 73%
    05:00 -23°C° 0 mm 2 mps 599 mmHg 67%
    06:00 -23°C° 0 mm 2 mps 599 mmHg 62%
    07:00 -23°C° 0 mm 2 mps 599 mmHg 57%
    08:00 -20°C° 0 mm 2 mps 600 mmHg 56%
    09:00 -19°C° 0 mm 2 mps 600 mmHg 55%
    10:00 -16°C° 0 mm 1 mps 601 mmHg 54%
    11:00 -14°C° 0 mm 1 mps 601 mmHg 55%
    12:00 -13°C° 0 mm 1 mps 601 mmHg 56%
    13:00 -11°C° 0 mm 1 mps 601 mmHg 58%
    14:00 -12°C° 0 mm 1 mps 601 mmHg 59%
    15:00 -13°C° 0 mm 1 mps 600 mmHg 61%
    16:00 -14°C° 0 mm 1 mps 599 mmHg 62%
    17:00 -15°C° 0 mm 1 mps 599 mmHg 59%
    18:00 -16°C° 0 mm 1 mps 599 mmHg 55%
    19:00 -17°C° 0 mm 1 mps 599 mmHg 52%
    20:00 -17°C° 0 mm 1 mps 599 mmHg 50%
    21:00 -18°C° 0 mm 1 mps 599 mmHg 49%
    22:00 -18°C° 0 mm 1 mps 598 mmHg 47%
    23:00 -18°C° 0 mm 1 mps 598 mmHg 47%
    Show more